AI4ZL Weather Reports


time (UTC)temp
F
wind
direction
speed
knots
gust
knots
rain 1hr
in
rain 24hr
in
rain mn
in
humidity
%
barometer
mb
20260831200246 95 199 1.7 3.5 0.00 0.00 0.00 59 1019.4
20260831195240 92 292 0.0 0.9 0.00 0.00 0.00 61 1019.4
20260831194255 96 232 1.7 3.5 0.00 0.00 0.00 58 1019.6
20260831193250 95 136 1.7 2.6 0.00 0.00 0.00 60 1019.6
20260831192245 94 271 0.9 3.5 0.00 0.00 0.00 58 1019.6
20260831191238 95 174 1.7 3.5 0.00 0.00 0.00 60 1019.7
20260831190233 95 179 1.7 3.5 0.00 0.00 0.00 60 1019.8
20260831185248 93 213 1.7 3.5 0.00 0.00 0.00 59 1019.8
20260831184243 94 259 2.6 7.0 0.00 0.00 0.00 60 1020.0
20260831183238 94 260 3.5 6.1 0.00 0.00 0.00 59 1020.0
20260831182234 93 179 1.7 3.5 0.00 0.00 0.00 60 1020.1
20260831181249 93 265 1.7 6.1 0.00 0.00 0.00 60 1020.1
20260831180242 93 260 2.6 5.2 0.00 0.00 0.00 61 1020.3
20260831175236 93 245 1.7 3.5 0.00 0.00 0.00 63 1020.4
20260831174231 93 265 1.7 3.5 0.00 0.00 0.00 63 1020.7
20260831173245 92 252 2.6 6.1 0.00 0.00 0.00 64 1020.6
20260831172240 92 256 1.7 5.2 0.00 0.00 0.00 62 1020.8
20260831171254 92 254 2.6 6.1 0.00 0.00 0.00 65 1020.8
20260831170309 91 211 1.7 3.5 0.00 0.00 0.00 66 1021.1
20260831165246 91 162 2.6 6.1 0.00 0.00 0.00 67 1021.1
20260831164242 90 196 2.6 5.2 0.00 0.00 0.00 67 1021.2
20260831163238 90 252 2.6 5.2 0.00 0.00 0.00 67 1021.3
20260831162234 91 233 1.7 5.2 0.00 0.00 0.00 67 1021.2
20260831161249 91 241 0.9 2.6 0.00 0.00 0.00 69 1021.3
20260831160245 89 245 2.6 6.1 0.00 0.00 0.00 68 1021.4
20260831155241 89 249 3.5 8.7 0.00 0.00 0.00 68 1021.4
20260831154237 89 259 4.3 9.6 0.00 0.00 0.00 68 1021.5
20260831153233 88 240 2.6 6.1 0.00 0.00 0.00 72 1021.4
20260831152248 88 225 2.6 5.2 0.00 0.00 0.00 72 1021.3
20260831151243 88 175 1.7 2.6 0.00 0.00 0.00 73 1021.3
20260831150238 87 183 1.7 3.5 0.00 0.00 0.00 75 1021.2
20260831145233 87 260 3.5 6.1 0.00 0.00 0.00 74 1021.2
20260831144309 86 257 2.6 6.1 0.00 0.00 0.00 76 1021.0
20260831143306 85 248 1.7 3.5 0.00 0.00 0.00 77 1021.0
20260831142242 84 208 2.6 3.5 0.00 0.00 0.00 79 1020.9
20260831141238 84 236 1.7 5.2 0.00 0.00 0.00 80 1020.8
20260831140234 83 205 1.7 2.6 0.00 0.00 0.00 81 1020.7
20260831135231 82 201 1.7 3.5 0.00 0.00 0.00 82 1020.8
20260831134307 82 209 1.7 3.5 0.00 0.00 0.00 83 1020.7
20260831133243 82 207 0.9 2.6 0.00 0.00 0.00 85 1020.7
20260831132240 81 203 0.9 1.7 0.00 0.00 0.00 86 1020.4
20260831131255 80 197 0.9 1.7 0.00 0.00 0.00 88 1020.4
20260831130249 79 179 0.9 1.7 0.00 0.00 0.00 90 1020.6
20260831125245 77 225 0.9 2.6 0.00 0.00 0.00 94 1020.4
20260831124240 75 0.0 0.0 0.00 0.00 0.00 96 1020.3
20260831123235 74 203 0.0 1.7 0.00 0.00 0.00 98 1020.3
20260831122249 74 0.0 0.0 0.00 0.00 0.00 99 1020.2
20260831121245 73 0.0 0.0 0.00 0.00 0.00 99 1020.1
20260831120300 73 0.0 0.0 0.00 0.00 0.00 99 1020.1
20260831115235 72 0.0 0.0 0.00 0.00 0.00 99 1019.7
20260831114231 72 0.0 0.0 0.00 0.00 0.00 99 1019.6
20260831113245 72 0.0 0.0 0.00 0.00 0.00 99 1019.6
20260831112301 72 0.0 0.0 0.00 0.00 0.00 99 1019.4
20260831111236 72 0.0 0.0 0.00 0.00 0.00 99 1019.3
20260831110251 72 0.0 0.0 0.00 0.00 0.00 99 1019.5
20260831105247 72 0.0 0.0 0.00 0.00 0.00 99 1019.4
20260831104242 72 0.0 0.0 0.00 0.00 0.00 99 1019.4
20260831103238 71 0.0 0.0 0.00 0.00 0.00 99 1019.4
20260831102233 71 0.0 0.0 0.00 0.00 0.00 99 1019.2
20260831101308 71 0.0 0.0 0.00 0.00 0.00 99 1019.1
20260831100242 72 0.0 0.0 0.00 0.00 0.00 99 1019.0
20260831095238 72 0.0 0.0 0.00 0.00 0.00 99 1019.0
20260831094233 72 0.0 0.0 0.00 0.00 0.00 99 1019.1
20260831093246 72 0.0 0.0 0.00 0.00 0.00 99 1018.9
20260831092242 72 0.0 0.0 0.00 0.00 0.00 99 1018.9
20260831091237 72 0.0 0.0 0.00 0.00 0.00 99 1018.9
20260831090232 73 0.0 0.0 0.00 0.00 0.00 99 1018.8
20260831085247 73 0.0 0.0 0.00 0.00 0.00 99 1018.7
20260831084301 73 0.0 0.0 0.00 0.00 0.00 99 1018.6
20260831083237 73 0.0 0.0 0.00 0.00 0.00 99 1018.6
20260831082252 73 0.0 0.0 0.00 0.00 0.00 99 1018.3
20260831081248 73 0.0 0.0 0.00 0.00 0.00 99 1018.4
20260831080303 73 0.0 0.0 0.00 0.00 0.00 99 1018.5
20260831075258 74 0.0 0.0 0.00 0.00 0.00 99 1018.3
20260831074233 73 0.0 0.0 0.00 0.00 0.00 99 1018.3
20260831073248 73 0.0 0.0 0.00 0.00 0.00 99 1018.3
20260831072243 73 0.0 0.0 0.00 0.00 0.00 99 1018.4
20260831071257 72 0.0 0.0 0.00 0.00 0.00 99 1018.4
20260831070232 72 0.0 0.0 0.00 0.00 0.00 99 1018.5
20260831065247 72 0.0 0.0 0.00 0.00 0.00 99 1018.7
20260831064303 72 0.0 0.0 0.00 0.00 0.00 99 1018.8
20260831063258 72 0.0 0.0 0.00 0.00 0.00 99 1018.8
20260831062234 73 0.0 0.0 0.00 0.00 0.00 99 1018.8
20260831061309 73 0.0 0.0 0.00 0.00 0.00 99 1018.8
20260831060243 73 0.0 0.0 0.00 0.00 0.00 99 1018.9
20260831055240 73 0.0 0.0 0.00 0.00 0.00 99 1018.9
20260831054234 73 0.0 0.0 0.00 0.00 0.00 99 1018.9
20260831053250 73 0.0 0.0 0.00 0.00 0.00 99 1019.0
20260831052245 73 0.0 0.0 0.00 0.00 0.00 99 1018.6
20260831051301 73 0.0 0.0 0.00 0.00 0.00 99 1018.6
20260831050236 73 316 0.0 0.9 0.00 0.00 0.00 99 1018.6
20260831045231 73 0.0 0.0 0.00 0.00 0.00 99 1018.5
20260831044247 73 0.0 0.0 0.00 0.00 0.00 99 1018.8
20260831043242 73 0.0 0.0 0.00 0.00 0.00 99 1018.9
20260831042237 73 0.0 0.0 0.00 0.00 0.00 99 1018.8
20260831041233 74 0.0 0.0 0.00 0.00 0.00 99 1018.7
20260831040308 74 0.0 0.0 0.00 0.00 0.00 99 1018.8
20260831035243 74 0.0 0.0 0.00 0.00 0.00 99 1018.7
20260831034236 74 0.0 0.0 0.00 0.00 0.00 98 1018.7
20260831033231 74 0.0 0.0 0.00 0.00 0.00 98 1018.8
20260831032247 74 0.0 0.0 0.00 0.00 0.00 98 1018.7
20260831031243 74 0.0 0.0 0.00 0.00 0.00 98 1018.7
20260831030237 74 0.0 0.0 0.00 0.00 0.00 98 1018.7
20260831025232 74 0.0 0.0 0.00 0.00 0.00 98 1018.6
20260831024247 75 0.0 0.0 0.00 0.00 0.00 98 1018.7
20260831023242 75 0.0 0.0 0.00 0.00 0.00 98 1018.6
20260831022236 75 0.0 0.0 0.00 0.00 0.00 97 1018.4
20260831021231 75 0.0 0.0 0.00 0.00 0.00 97 1018.5
20260831020247 76 311 0.0 0.9 0.00 0.00 0.00 97 1018.3
20260831015305 76 0.0 0.0 0.00 0.00 0.00 96 1018.3
20260831014256 76 0.0 0.0 0.00 0.00 0.00 96 1018.3
20260831013231 76 0.0 0.0 0.00 0.00 0.00 95 1018.0
20260831012245 77 0.0 0.0 0.00 0.00 0.00 93 1017.7
20260831011300 77 0.0 0.0 0.00 0.00 0.00 91 1017.9
20260831010234 78 0.0 0.0 0.00 0.00 0.00 90 1017.8
20260831005310 79 0.0 0.0 0.00 0.00 0.00 89 1017.8
20260831004244 80 0.0 0.0 0.00 0.00 0.00 85 1017.7
20260831003239 81 0.0 0.0 0.00 0.00 0.00 84 1017.7
20260831002234 82 313 0.0 0.9 0.00 0.00 0.00 84 1017.8
20260831001249 83 0.0 0.0 0.00 0.00 0.00 83 1017.8
20260831000305 86 0.0 0.0 0.00 0.00 0.00 77 1017.9
20260830235240 89 6 0.0 0.9 0.00 0.00 0.00 71 1018.0
20260830234234 91 296 0.0 0.9 0.00 0.00 0.00 62 1018.2
20260830233310 91 288 0.9 2.6 0.00 0.00 0.00 58 1018.1
20260830232306 92 292 0.9 1.7 0.00 0.00 0.00 57 1018.0
20260830231239 92 276 0.9 1.7 0.00 0.00 0.00 55 1017.9
20260830230234 93 267 1.7 2.6 0.00 0.00 0.00 53 1017.8
20260830225248 94 262 0.9 2.6 0.00 0.00 0.00 53 1017.8
20260830224244 94 267 0.9 1.7 0.00 0.00 0.00 54 1017.8
20260830223239 94 254 1.7 3.5 0.00 0.00 0.00 53 1017.8
20260830222235 94 260 1.7 2.6 0.00 0.00 0.00 52 1017.9
20260830221232 94 257 1.7 2.6 0.00 0.00 0.00 52 1017.9
20260830220306 94 266 1.7 3.5 0.00 0.00 0.00 52 1018.0
20260830215238 95 257 1.7 3.5 0.00 0.00 0.00 52 1017.9
20260830214254 94 271 1.7 3.5 0.00 0.00 0.00 51 1018.1
20260830213231 94 265 2.6 6.1 0.00 0.00 0.00 53 1018.3
20260830212247 94 246 1.7 5.2 0.00 0.00 0.00 52 1018.2
20260830211243 94 252 2.6 5.2 0.00 0.00 0.00 51 1018.3
20260830210239 95 221 1.7 2.6 0.00 0.00 0.00 51 1018.1
20260830205233 94 253 2.6 6.1 0.00 0.00 0.00 50 1018.2
20260830204248 95 268 1.7 6.1 0.00 0.00 0.00 50 1018.5
20260830203243 94 274 1.7 3.5 0.00 0.00 0.00 50 1018.7
20260830202239 94 209 1.7 3.5 0.00 0.00 0.00 52 1019.0
20260830201235 94 254 2.6 5.2 0.00 0.00 0.00 50 1019.0